x

Southeast Papa - 600nm West Of Eureka, Ca (46006) Weather Station

8:50am - Sat 21st Oct 2017 All times are UTC.

  • Wind
    25mph, 31mph gusts
  • Sea Temp 63°f
  • Air Temp 65°f
  • Sea Pressure 1013.1mb

More Historic Weather Station data

Upgrade to MSW Pro to gain access to the past 30 days of data for over 8000 Wavebouys and Weather Stations around the globe.

Join

Comparision Forecast

View Surf forecast
   
Sat 10/21 8:50am 25 31 mph 1013.1mb 63f 65f
8:40am 27 34 mph 1013.2mb - 65f
8:30am 25 31 mph 1013.4mb 63f 65f
8:20am 25 31 mph 1013.3mb 63f 65f
8:10am 22 31 mph 1013.3mb 63f 65f
8:00am 25 31 mph 1013.4mb 63f 65f
7:50am 25 34 mph 1013.3mb 63f 65f
7:40am 25 31 mph 1013.4mb 63f 65f
7:30am 22 29 mph 1013.4mb 63f 65f
7:20am 22 29 mph 1013.3mb 63f 65f
7:10am 25 29 mph 1013.5mb 63f 65f
7:00am 25 31 mph 1013.6mb 63f 65f
6:50am 25 29 mph 1013.7mb 63f 65f
6:40am 25 31 mph 1013.8mb 63f 65f
6:30am 25 31 mph 1013.8mb 63f 65f
6:20am 25 31 mph 1013.8mb 63f 65f
6:10am 25 31 mph 1013.7mb 63f 65f
6:00am 25 34 mph 1013.6mb 63f 65f
5:50am 25 34 mph 1013.7mb 63f 65f
5:40am 25 31 mph 1013.6mb 63f 65f
5:30am 25 31 mph 1013.7mb 63f 65f
5:20am 25 31 mph 1013.7mb 63f 65f
5:10am 25 34 mph 1013.7mb 63f 65f
5:00am 25 31 mph 1013.6mb 63f 65f
4:50am 25 31 mph 1013.6mb 63f 65f
4:40am 25 31 mph 1013.8mb 63f 65f
4:30am 25 34 mph 1013.7mb 63f 65f
4:20am 25 31 mph 1013.6mb 63f 65f
4:10am 27 36 mph - 63f 65f
4:00am 25 31 mph 1013.6mb 63f 64f
3:50am 25 36 mph 1013.7mb 63f 64f
3:40am 22 29 mph 1013.7mb 63f 65f
3:30am 25 34 mph 1013.6mb 63f 65f
3:20am 27 36 mph 1013.5mb 63f 65f
3:10am 27 34 mph 1013.3mb 63f 65f
3:00am 27 36 mph 1013.2mb 63f 65f
2:50am 27 36 mph 1013.2mb 63f 65f
2:40am 25 34 mph 1013.2mb 63f 65f
2:30am 25 31 mph 1013.3mb - 65f
2:20am 25 31 mph 1013.4mb 63f 65f
2:10am 27 36 mph 1013.4mb 63f 65f
2:00am 27 34 mph 1013.5mb 63f 65f
1:50am 25 34 mph 1013.5mb 63f 65f
1:40am 25 31 mph 1013.7mb 63f 64f
1:30am 25 31 mph 1013.7mb 63f 64f
1:20am 25 31 mph 1013.8mb 63f 64f
1:10am 27 34 mph 1013.9mb 63f 64f
1:00am 27 34 mph 1014.1mb 64f 64f
12:50am 29 38 mph 1014.2mb - 64f
12:40am 27 34 mph 1014.2mb - 64f
12:30am 27 36 mph 1014.1mb 64f 64f
12:20am 27 36 mph 1014.1mb 64f 64f
12:10am 27 34 mph 1014.1mb 64f 65f
12:00am 29 38 mph 1014mb 64f 64f
Fri 10/20 11:50pm 29 38 mph 1014.1mb 64f 64f
11:40pm 29 36 mph 1014.1mb 64f 64f
11:20pm 27 36 mph 1014.1mb 64f 64f
11:10pm 27 36 mph 1014.1mb 64f 64f
11:00pm 29 40 mph 1014.2mb 64f 64f
10:50pm 31 38 mph 1014.2mb - 64f
10:40pm 29 38 mph 1014.2mb 64f 64f
10:30pm 29 36 mph 1014.1mb - 64f
10:20pm 29 36 mph 1014.3mb 64f 63f
10:10pm 27 36 mph 1014.5mb 64f 64f
10:00pm 29 38 mph 1014.5mb 64f 64f
9:50pm 29 36 mph 1014.5mb 64f 64f
9:40pm 29 38 mph 1014.6mb 64f 64f
9:30pm 29 36 mph 1014.8mb 64f 64f
9:20pm 29 40 mph 1014.9mb 64f 64f
9:10pm 31 40 mph 1015.1mb 64f 64f
9:00pm 29 40 mph 1015.1mb 64f 64f
8:50pm 29 36 mph 1015.3mb 64f 64f
8:40pm 29 38 mph 1015.5mb 64f 64f
8:30pm 29 36 mph 1015.7mb 64f 64f
8:20pm 27 36 mph 1015.7mb 64f 64f
8:10pm 29 38 mph 1015.9mb 64f 64f
8:00pm 31 40 mph 1016mb 64f 63f
7:50pm 29 36 mph 1015.8mb 64f 63f
7:40pm 27 36 mph 1015.9mb 64f 62f
7:30pm 29 38 mph 1016.1mb - 62f
7:20pm 29 38 mph 1016.2mb 64f 62f
7:10pm 29 36 mph 1016.1mb 64f 62f
7:00pm 29 36 mph 1016.1mb 64f 62f
6:50pm 29 40 mph 1016.3mb 64f 62f
6:40pm 29 40 mph 1016.4mb 64f 61f
6:30pm 29 40 mph 1016.6mb - 62f
6:20pm 31 40 mph 1016.6mb 64f 63f
6:10pm 29 38 mph 1016.3mb 64f 63f
6:00pm 27 36 mph 1016.3mb 64f 63f
5:50pm 29 36 mph 1016.5mb 64f 63f
5:40pm 27 34 mph 1016.5mb 64f 63f
5:30pm 27 34 mph 1016.8mb 64f 62f
5:20pm 25 31 mph 1016.8mb 64f 62f
5:10pm 27 36 mph 1016.8mb 64f 62f
5:00pm 25 34 mph 1016.8mb 64f 62f
4:50pm 22 29 mph 1016.6mb 64f 61f
4:40pm 25 34 mph 1016.7mb 64f 61f
4:30pm 27 34 mph 1016.8mb 64f 62f
4:20pm 25 34 mph 1016.6mb 64f 62f
4:10pm 22 27 mph 1016.9mb 64f 61f
4:00pm 22 31 mph 1017.2mb 64f 61f
2:20pm 22 29 mph 1018mb 64f 60f
2:10pm 27 36 mph 1018.1mb 64f 61f
2:00pm 22 31 mph 1018.2mb 64f 61f
1:50pm 22 34 mph 1018.2mb 64f 60f
1:40pm 22 29 mph 1018.3mb 64f 59f
1:30pm 22 31 mph - 64f 60f
1:20pm 18 25 mph 1018.3mb 64f 60f
1:10pm 20 27 mph 1018.1mb 64f 60f
1:00pm 20 29 mph 1018.1mb 64f 60f
12:50pm 22 29 mph 1018.3mb 64f 60f
12:40pm 22 29 mph 1018.3mb 64f 60f
12:30pm 22 29 mph 1018.4mb 64f 60f
12:20pm 20 27 mph 1018.2mb 64f 60f
12:10pm 20 29 mph 1018.2mb 64f 60f
12:00pm 22 27 mph 1018.5mb 64f 60f
11:50am 20 27 mph 1018.5mb 64f 60f
11:40am 22 29 mph 1018.6mb 64f 59f
11:30am 22 29 mph 1018.9mb 64f 59f
11:20am 20 27 mph 1018.9mb 64f 59f
11:10am 20 27 mph 1018.9mb 64f 59f
11:00am 20 27 mph 1018.6mb 64f 59f
10:50am 18 27 mph 1018.8mb 64f 59f
10:40am 20 27 mph 1019mb 64f 59f
10:30am 20 27 mph 1019mb - -
10:20am 20 27 mph 1018.9mb 64f 59f
10:10am 18 25 mph 1019.2mb 64f 59f
10:00am 18 25 mph 1019.3mb 64f 59f
9:50am 20 27 mph 1018.9mb 64f 59f
9:40am 20 29 mph 1019mb 64f 59f
9:30am 20 29 mph 1019.1mb 64f 59f
9:20am 20 27 mph 1019.1mb 64f 59f
9:10am 22 31 mph 1019.2mb 64f 59f
9:00am 22 29 mph 1019.3mb 64f 59f
8:50am 22 29 mph 1019.4mb 64f 59f
8:40am 20 29 mph 1019.4mb 64f 59f
8:30am 16 25 mph 1019.6mb 64f 58f
8:20am 16 25 mph 1019.6mb 64f 58f
8:10am 18 25 mph 1019.6mb 64f 58f
8:00am 20 27 mph 1019.6mb 64f 58f
7:50am 18 29 mph 1019.4mb 64f 57f
7:40am 18 25 mph 1019.3mb 64f 57f
7:30am 20 29 mph 1019.3mb 64f 57f
7:20am 18 22 mph 1019.4mb 64f 56f
7:10am 20 29 mph 1019.4mb 64f 56f
7:00am 22 29 mph 1019.3mb 64f 56f
6:50am 22 31 mph 1019.4mb 64f 57f
6:40am 22 29 mph 1019.2mb 64f 57f
6:30am 20 29 mph 1019mb 64f 57f
6:20am 22 31 mph 1019.1mb 64f 58f
6:10am 25 31 mph 1018.9mb 64f 58f
6:00am 22 31 mph 1019mb 64f 58f
5:50am 22 31 mph 1018.7mb 64f 58f
5:40am 22 29 mph 1018.4mb 64f 58f
5:30am 25 34 mph 1018.5mb 64f 57f
5:20am 27 36 mph 1018.7mb 64f 58f
5:10am 27 36 mph 1018.6mb 64f 58f
5:00am 25 34 mph 1018.3mb 64f 58f
4:50am 25 31 mph 1018.4mb 64f 58f
4:40am 25 31 mph 1018.6mb 64f 58f
4:30am 25 34 mph 1018.4mb - -
4:20am 29 38 mph 1018.4mb 64f 57f
4:10am 29 40 mph 1018.4mb 64f 58f
4:00am 29 38 mph 1018.1mb 64f 59f
3:50am 25 34 mph 1017.9mb 64f 58f
3:40am 29 36 mph 1017.7mb 64f 58f
3:30am 22 34 mph 1017.7mb 64f 57f
3:20am 27 36 mph 1017.8mb 64f 57f
3:10am 27 38 mph 1017.7mb 64f 57f
3:00am 29 38 mph 1017.8mb 64f 58f
2:50am 27 34 mph 1017.4mb 64f 58f
2:40am 29 36 mph 1017.3mb 64f 58f
2:30am 29 38 mph 1017.1mb 64f 58f
2:20am 29 38 mph 1016.8mb 64f 58f
2:10am 31 38 mph 1016.6mb 64f 58f
2:00am 29 38 mph 1016.5mb 64f 58f
1:50am 29 38 mph 1016.5mb 64f 59f
1:40am 31 38 mph 1016.4mb 64f 59f
1:30am 31 43 mph 1016.5mb 64f 58f
1:20am 27 38 mph 1016.3mb 64f 58f
1:10am 29 38 mph 1016.6mb 64f 58f
1:00am 31 45 mph 1016.4mb 64f 57f
12:50am 29 38 mph 1016.2mb 64f 58f
12:40am 31 40 mph 1016.1mb - 59f
12:30am 29 38 mph 1016mb 64f 59f
12:20am 29 40 mph 1015.9mb 64f 58f
12:10am 25 34 mph 1015.7mb 64f 58f
12:00am 29 43 mph 1015.6mb 64f 57f
Thu 10/19 11:50pm 29 43 mph 1015.5mb 64f 59f
11:40pm 29 40 mph 1015.2mb 64f 59f
11:20pm 31 43 mph 1015.3mb 64f 58f
11:10pm 29 38 mph 1015.1mb 64f 58f
11:00pm 27 38 mph 1015.1mb 64f 58f
10:50pm 27 36 mph 1015.1mb 64f 57f
10:40pm 25 34 mph 1015.2mb 64f 56f
10:30pm 31 49 mph 1015.3mb - -
10:20pm 31 51 mph 1015.2mb 64f 57f
10:10pm 31 43 mph 1014.9mb 64f 58f
10:00pm 29 38 mph 1014.9mb 64f 58f
9:50pm 27 36 mph 1014.8mb 64f 59f
9:40pm 29 38 mph 1014.9mb 64f 58f
9:30pm 29 38 mph 1014.9mb 64f 58f
9:20pm 29 38 mph 1015.1mb 64f 57f
9:10pm 29 38 mph 1014.9mb 64f 57f
9:00pm 27 38 mph 1015mb 64f 57f
8:50pm 25 36 mph 1014.9mb 64f 57f
8:40pm 29 40 mph 1015mb 64f 58f
8:30pm 31 40 mph 1014.9mb 64f 58f
8:20pm 31 40 mph 1014.7mb 64f 58f
8:10pm 31 43 mph 1014.8mb - 58f
8:00pm 29 38 mph 1014.8mb 64f 58f
7:50pm 29 38 mph 1014.7mb 64f 58f
7:40pm 29 38 mph 1014.5mb 64f 58f
7:30pm 31 38 mph 1014.3mb 64f 58f
7:20pm 34 43 mph 1014.1mb 64f 58f
7:10pm 29 38 mph 1013.9mb 64f 59f
7:00pm 31 43 mph 1013.9mb 64f 59f
6:50pm 27 38 mph 1013.8mb 64f 58f
6:40pm 29 40 mph 1013.9mb 64f 57f
6:30pm 31 40 mph 1013.6mb 64f 59f
6:20pm 31 40 mph 1013.5mb 64f 59f
6:10pm 31 40 mph 1013.4mb 64f 59f
6:00pm 31 40 mph 1013.4mb 64f 58f
5:50pm 25 34 mph 1013.2mb 64f 56f
5:40pm 29 43 mph 1013.4mb 64f 57f
5:30pm 29 38 mph 1013.1mb 64f 58f
5:20pm 31 40 mph 1012.9mb 64f 58f
5:10pm 31 40 mph 1012.8mb 64f 58f
5:00pm 31 45 mph 1012.6mb 64f 58f
4:50pm 29 40 mph 1012.5mb 64f 58f
4:40pm 29 36 mph 1012.4mb 64f 58f
4:30pm 29 38 mph 1012.3mb 64f 57f
4:20pm 34 45 mph 1012.1mb 64f 57f
4:10pm 36 47 mph 1012mb 64f 58f
4:00pm 34 45 mph 1011.9mb 65f 58f
3:50pm 31 40 mph 1011.7mb 65f 58f
3:40pm 31 38 mph 1011.6mb 65f 58f
3:30pm 29 43 mph 1011.7mb - 58f
3:20pm 29 40 mph 1011.6mb 65f 58f
3:10pm 31 38 mph 1011.7mb 65f 58f
3:00pm 29 38 mph 1011.7mb 65f 58f
2:50pm 31 40 mph 1011.7mb 65f 58f
2:40pm 29 40 mph 1011.5mb 65f 57f
2:30pm 27 34 mph 1011.5mb 65f 57f
2:20pm 29 36 mph 1011.5mb 65f 56f
2:10pm 34 43 mph 1011.5mb 65f 56f
2:00pm 31 49 mph 1011.2mb 65f 57f
1:50pm 31 45 mph 1010.9mb 65f 59f
1:40pm 31 40 mph 1010.9mb 65f 59f
1:30pm 31 45 mph 1010.8mb 65f 59f
1:20pm 34 45 mph 1010.8mb 65f 59f
1:10pm 31 45 mph 1010.6mb 65f 59f
1:00pm 29 38 mph 1010.6mb 65f 59f
12:50pm 29 40 mph 1010.5mb 65f 59f
12:40pm 29 38 mph 1010.3mb 65f 60f
12:30pm 31 40 mph 1010.3mb 65f 60f
12:20pm 31 40 mph 1010.3mb 65f 60f
12:10pm 29 40 mph 1010.3mb - 60f
12:00pm 31 40 mph 1010.1mb 65f 60f
11:50am 31 38 mph 1010.2mb 65f 59f
11:40am 31 45 mph 1010.4mb 65f 60f
11:30am 31 43 mph 1010.2mb 65f 60f
11:20am 31 43 mph 1010.3mb 65f 59f
11:10am 29 40 mph 1010.5mb 65f 59f
11:00am 31 43 mph 1010.4mb 65f 60f
10:50am 31 43 mph 1010.5mb 65f 60f
10:40am 29 40 mph 1010.4mb 65f 60f
10:30am 31 40 mph 1010.6mb 65f 59f
10:20am 31 40 mph 1010.6mb 65f 59f
10:10am 29 47 mph 1010.5mb 65f 59f
10:00am 29 40 mph 1010.5mb 65f 58f
9:50am 31 47 mph 1010.5mb 65f 58f
9:40am 36 45 mph 1010.7mb 65f 58f
9:30am 34 43 mph 1010.4mb 65f 60f
9:20am 31 43 mph 1010.2mb 65f 60f
9:10am 31 40 mph 1010.2mb 65f 60f
9:00am 31 40 mph 1010.3mb 65f 59f
8:50am 31 45 mph 1010.6mb 65f 60f
8:40am 31 43 mph 1010mb 65f 61f
8:30am 31 43 mph 1010.3mb 65f 60f
8:20am 29 43 mph 1010.3mb 65f 59f
8:10am 29 38 mph 1010.2mb 65f 60f
8:00am 29 38 mph 1010.4mb 65f 60f
7:50am 34 43 mph 1010.5mb 65f 59f
7:40am 34 45 mph 1010.5mb 65f 60f
7:30am 31 43 mph 1010.5mb 65f 61f
7:20am 29 40 mph 1010.6mb 65f 60f
7:10am 27 38 mph 1010.5mb 65f 62f
7:00am 29 38 mph 1010.3mb - 62f
6:50am 29 36 mph 1010.5mb 65f 62f
6:40am 29 38 mph 1010.4mb 65f 62f
6:30am 31 38 mph 1010.4mb 65f 62f
6:20am 31 40 mph 1010.4mb 65f 62f
6:10am 29 36 mph 1010.4mb 65f 62f
6:00am 29 36 mph 1010.5mb 65f 62f
5:50am 25 31 mph 1010.5mb 65f 62f
5:40am 27 31 mph 1010.4mb 65f 61f
5:30am 27 36 mph 1010.3mb - 62f
5:20am 27 36 mph 1010.4mb 65f 62f
5:10am 27 34 mph 1010.5mb 65f 61f
5:00am 29 40 mph 1010.7mb 65f 62f
4:50am 29 38 mph 1010.6mb 65f 62f
4:40am 27 34 mph 1010.8mb 65f 62f
4:30am 27 38 mph 1010.7mb 65f 62f
4:20am 27 40 mph 1010.9mb 65f 61f
4:10am 27 40 mph 1010.7mb 65f 62f
4:00am 25 36 mph 1010.7mb 65f 63f
3:50am 25 34 mph 1010.7mb 65f 63f
3:40am 22 31 mph 1010.6mb 65f 62f
3:30am 22 31 mph 1010.6mb 65f 62f
3:20am 27 38 mph 1010.8mb 65f 62f
3:10am 25 34 mph 1011mb 65f 62f
3:00am 27 36 mph 1010.9mb 65f 63f
2:50am 27 34 mph 1010.8mb 65f 63f
2:40am 27 38 mph 1011mb 65f 63f
2:30am 27 36 mph 1010.9mb 65f 62f
2:20am 29 36 mph 1010.8mb 65f 62f
2:10am 27 36 mph 1010.7mb 65f 63f
2:00am 27 36 mph 1010.5mb 65f 63f
1:50am 27 31 mph 1010.7mb 65f 63f
1:40am 27 34 mph 1011mb 65f 64f
1:30am 25 34 mph 1011mb 65f 63f
1:20am 27 34 mph 1011.1mb 65f 63f
1:10am 27 36 mph 1011.3mb 65f 63f
1:00am 27 36 mph 1011.5mb 65f 63f
12:50am 29 34 mph 1011.6mb 65f 63f
12:40am 27 36 mph 1011.5mb 65f 63f
12:30am 25 34 mph 1011.5mb 65f 64f
12:20am 25 31 mph 1011.5mb 65f 64f
12:10am 25 34 mph 1011.5mb 65f 64f
12:00am 25 34 mph 1011.7mb 65f 64f
Wed 10/18 11:50pm 25 34 mph 1011.7mb 65f 64f
11:40pm 25 31 mph 1011.7mb 65f 64f
11:20pm 29 36 mph 1011.9mb 65f 64f
11:10pm 29 38 mph 1011.9mb 65f 64f
11:00pm 29 38 mph 1011.9mb 65f 64f
10:50pm 29 36 mph 1011.9mb 65f 64f
10:40pm 31 40 mph 1011.9mb 65f 64f
10:30pm 29 38 mph 1011.9mb - 64f
10:20pm 27 36 mph 1011.8mb 65f 64f
10:10pm 27 34 mph 1011.8mb 65f 64f
10:00pm 27 34 mph 1011.8mb 65f 64f
9:50pm 25 31 mph 1012mb 65f 64f
9:40pm 25 31 mph 1012mb 65f 64f
9:30pm 25 31 mph 1012.1mb 65f 64f
9:20pm 22 29 mph 1012.2mb 65f 64f
9:10pm 25 31 mph 1012.2mb 65f 64f
9:00pm 25 34 mph 1012.7mb 65f 64f
8:50pm 25 34 mph 1012.8mb 65f 65f
8:40pm 27 31 mph 1012.8mb 65f 64f
8:30pm 27 34 mph 1012.8mb 65f 65f
8:20pm 27 31 mph 1013mb 65f 65f
8:10pm 27 34 mph 1012.9mb 65f 64f
8:00pm 25 31 mph 1012.8mb 65f 65f
7:50pm 25 31 mph 1012.9mb 65f 65f
7:40pm 27 34 mph 1012.9mb 65f 65f
7:30pm 25 29 mph 1012.7mb 65f 65f
7:20pm 25 29 mph 1012.7mb 65f 64f
7:10pm 25 34 mph 1012.8mb 65f 63f
7:00pm 25 31 mph 1012.7mb 65f 63f
6:50pm 25 31 mph 1012.7mb 65f 63f
6:40pm 25 31 mph 1012.6mb 65f 63f
6:30pm 25 31 mph 1012.7mb 65f 63f
6:20pm 25 34 mph 1012.6mb 65f 63f
6:10pm 27 34 mph 1012.6mb 65f 63f
6:00pm 25 34 mph 1012.5mb 65f 63f
5:50pm 27 34 mph 1012.6mb 65f 65f
5:40pm 29 38 mph 1012mb 65f 66f
5:30pm 29 36 mph 1011.9mb 66f 66f
5:20pm 29 36 mph 1012mb 65f 66f
5:10pm 27 34 mph 1012.1mb 66f 66f
5:00pm 29 36 mph 1012.3mb 66f 66f
4:50pm 29 36 mph 1012.2mb 66f 66f
4:40pm 29 34 mph 1012.2mb 66f 66f
4:30pm 29 38 mph - - 66f
4:20pm 29 36 mph 1012.3mb 66f 66f
4:10pm 29 38 mph 1012.3mb 66f 66f
4:00pm 27 34 mph 1012.2mb 66f 66f
3:50pm 29 36 mph 1012.4mb 66f 66f
3:40pm 29 36 mph 1012.6mb - 66f
3:30pm 27 36 mph 1012.7mb - 66f
3:20pm 27 31 mph 1012.8mb 66f 66f
3:10pm 27 36 mph 1013mb 66f 66f
3:00pm 29 36 mph 1012.8mb 66f 67f
2:50pm 27 36 mph 1012.9mb 66f 67f
2:40pm 27 34 mph 1013mb 66f 66f
2:30pm 27 34 mph 1013.1mb 66f 66f
2:20pm 27 34 mph 1013.3mb 66f 66f
2:10pm 27 34 mph 1013.5mb 66f 66f
2:00pm 27 36 mph 1013.6mb 66f 66f
1:50pm 27 34 mph 1013.6mb 66f 66f
1:40pm 27 38 mph 1013.6mb 66f 66f
1:30pm 27 34 mph 1013.9mb 66f 66f
1:20pm 29 38 mph 1014mb - -
1:10pm 27 34 mph 1013.7mb 66f 66f
1:00pm 27 34 mph 1013.7mb 66f 66f
12:50pm 27 34 mph 1013.8mb 66f 66f
12:40pm 27 34 mph 1014mb 66f 66f
12:30pm 27 34 mph 1014.2mb 66f 66f
12:20pm 27 36 mph 1014.2mb 66f 66f
12:10pm 27 34 mph 1014.3mb 66f 66f
12:00pm 27 38 mph 1014.3mb 66f 65f
11:50am 29 40 mph 1014.7mb 66f 66f
11:40am 29 36 mph 1015.2mb 66f 66f
11:30am 25 36 mph 1015.3mb 66f 66f
11:20am 27 34 mph 1015.5mb 66f 66f
11:10am 25 31 mph 1015.6mb 66f 66f
11:00am 25 31 mph 1015.6mb 66f 65f
10:50am 29 36 mph 1015.7mb 66f 65f
10:40am 27 36 mph 1015.8mb 66f 65f
10:30am 27 34 mph 1015.9mb 66f 66f
10:20am 25 34 mph 1015.9mb 66f 66f
10:10am 25 34 mph 1015.9mb 66f 66f
10:00am 27 34 mph 1016.2mb 66f 66f
9:50am 27 34 mph 1016.4mb 66f 66f
9:40am 25 31 mph 1016.7mb 66f 66f
9:30am 25 31 mph 1016.7mb 66f 66f
9:20am 25 31 mph 1016.9mb 66f 66f
9:10am 25 29 mph 1017.2mb 66f 66f
9:00am 25 29 mph 1017.2mb 66f 66f
8:50am 25 31 mph 1017.2mb 66f 66f
8:40am 25 31 mph 1017.3mb 66f 66f
8:30am 22 29 mph 1017.5mb 66f 66f
8:20am 25 29 mph 1017.6mb 66f 66f
8:10am 25 31 mph 1017.9mb 66f 66f
8:00am 22 27 mph 1018.1mb 66f 66f
7:50am 25 29 mph 1018.2mb 66f 66f
7:40am 25 29 mph 1018.4mb 66f 66f
7:30am 25 31 mph 1018.6mb 66f 66f
7:20am 25 31 mph 1018.7mb 66f 66f
7:10am 22 27 mph 1018.7mb 66f 66f
7:00am 22 29 mph 1018.8mb 66f 66f
6:50am 22 27 mph 1018.8mb 66f 66f
6:40am 22 25 mph 1019mb 66f 66f
6:30am 20 25 mph 1018.9mb 66f 66f
6:20am 20 25 mph 1018.9mb 66f 66f
6:10am 20 25 mph 1019mb 66f 65f
6:00am 20 25 mph 1019.1mb 66f 65f
5:50am 20 25 mph 1019.3mb 66f 65f
5:40am 22 27 mph 1019.3mb 66f 65f
5:30am 20 25 mph 1019.2mb 66f 66f
5:20am 18 22 mph 1019.3mb 66f 66f
5:10am 18 22 mph 1019.3mb 66f 66f
5:00am 18 22 mph 1019.4mb 66f 66f
4:50am 18 22 mph 1019.5mb 66f 66f
4:40am 18 22 mph 1019.5mb 66f 66f
4:30am 18 22 mph 1019.7mb 66f 66f
4:20am 18 25 mph 1019.8mb 66f 66f
4:10am 20 22 mph 1019.7mb 66f 66f
4:00am 18 22 mph 1019.9mb 66f 66f
3:50am 20 25 mph 1020mb 66f 66f
3:40am 20 22 mph 1020mb 66f 66f
3:30am 18 22 mph 1020.1mb 66f 66f
3:20am 18 20 mph 1020.1mb 66f 66f
3:10am 18 20 mph 1020mb 66f 66f
3:00am 18 22 mph 1020.2mb 66f 66f
2:50am 18 22 mph 1020.2mb 66f 66f
2:40am 18 20 mph 1020.2mb 66f 66f
2:30am 18 22 mph 1020.3mb 66f 66f
2:20am 18 22 mph 1020.3mb 66f 66f
2:10am 18 22 mph 1020.4mb 66f 66f
2:00am 18 22 mph 1020.5mb 66f 66f
1:50am 18 22 mph 1020.7mb 66f 66f
1:40am 18 22 mph 1020.9mb 66f 66f
1:30am 18 22 mph 1021mb 66f 66f
1:20am 18 20 mph 1021mb 66f 66f
1:10am 18 22 mph 1021.1mb 66f 66f
1:00am 18 22 mph 1021.3mb 66f 66f
12:50am 18 22 mph 1021.3mb 66f 66f
12:40am 20 22 mph 1021.5mb 66f 66f
12:30am 18 22 mph 1021.4mb 66f 66f
12:20am 18 22 mph 1021.5mb 66f 66f
12:10am 18 22 mph 1021.6mb 66f 66f
12:00am 18 20 mph 1021.6mb 66f 66f
Tue 10/17 11:50pm 16 20 mph 1021.7mb 66f 66f
11:40pm 16 20 mph 1021.8mb 66f 66f
11:20pm 16 20 mph 1022mb 66f 66f
11:10pm 16 22 mph 1022.1mb 66f 66f
11:00pm 16 20 mph 1022.1mb 66f 66f
10:50pm 16 20 mph 1022.2mb 66f 66f
10:40pm 16 22 mph 1022.3mb 66f 66f
10:30pm 16 20 mph 1022.4mb 66f 66f
10:20pm 16 20 mph 1022.5mb 66f 66f
10:10pm 16 20 mph 1022.7mb 66f 66f
10:00pm 16 20 mph 1022.7mb 66f 66f
9:50pm 16 20 mph 1023mb 66f 66f
9:40pm 16 20 mph 1022.9mb 66f 66f
9:30pm 16 20 mph 1023.1mb 66f 66f
9:20pm 16 20 mph 1023.3mb 66f 66f
9:10pm 16 18 mph 1023.3mb 66f 66f
9:00pm 16 20 mph 1023.3mb 66f 66f
8:50pm 16 20 mph 1023.4mb 66f 66f
8:40pm 16 20 mph 1023.6mb 66f 66f
8:30pm 16 18 mph 1023.7mb 66f 66f
8:20pm 16 18 mph 1023.7mb 66f 66f
8:10pm 16 18 mph 1023.7mb 66f 66f
8:00pm 16 20 mph 1023.7mb 66f 66f
7:50pm 16 18 mph 1023.7mb 66f 66f
7:40pm 13 18 mph 1023.7mb 66f 66f
7:30pm 13 18 mph 1023.7mb 66f 66f
7:20pm 13 18 mph 1023.7mb 66f 66f
7:10pm 13 18 mph 1023.8mb 66f 66f
7:00pm 13 18 mph 1023.8mb 66f 66f
6:50pm 13 16 mph 1023.7mb 66f 66f
6:40pm 11 13 mph 1023.8mb 66f 66f
6:30pm 11 16 mph 1023.9mb 66f 66f
6:20pm 11 16 mph 1024mb 66f 65f
6:10pm 11 13 mph 1023.9mb 66f 65f
6:00pm 11 13 mph 1023.9mb 66f 66f
5:50pm 11 16 mph 1023.9mb 66f 65f
5:40pm 11 16 mph 1023.8mb 66f 65f
5:30pm 13 16 mph 1023.8mb 66f 65f
5:20pm 11 16 mph 1023.8mb 66f 65f
5:10pm 11 13 mph 1023.7mb 66f 65f
5:00pm 11 16 mph 1023.7mb 66f 65f
4:50pm 9 13 mph 1023.6mb 66f 65f
4:40pm 11 13 mph 1023.6mb 66f 65f
4:30pm 9 13 mph 1023.4mb - 65f
4:20pm 9 11 mph 1023.3mb 66f 65f
4:10pm 9 11 mph 1023.3mb 66f 65f
4:00pm 9 13 mph 1023.3mb 66f 65f
3:50pm 9 13 mph 1023.3mb 66f 65f
3:40pm 7 9 mph 1023.3mb 66f 64f
3:30pm 7 11 mph 1023.4mb 66f 64f
3:20pm 11 16 mph 1023.3mb 66f 65f
3:10pm 9 11 mph 1023.2mb 66f 65f
3:00pm 9 11 mph 1023mb 66f 65f
2:50pm 9 11 mph 1022.9mb 66f 65f
2:40pm 9 11 mph 1023mb 66f 65f
2:30pm 9 13 mph 1023mb 66f 65f
2:20pm 9 13 mph 1023mb 66f 65f
2:10pm 11 13 mph 1023.1mb 66f 65f
2:00pm 9 11 mph 1023mb 66f 65f
1:50pm 9 11 mph 1023mb 66f 65f
1:40pm 9 13 mph 1023mb 66f 65f
1:30pm 9 11 mph 1023mb 66f 65f
1:20pm 9 13 mph 1022.9mb 66f 65f
1:10pm 9 13 mph 1022.8mb 65f 65f
1:00pm 9 13 mph 1023mb 65f 65f
12:50pm 9 13 mph 1023.1mb 65f 65f
12:40pm 11 13 mph 1023.2mb 65f 65f
12:30pm 11 16 mph 1023.2mb 65f 65f
12:20pm 11 13 mph 1023.2mb 65f 64f
12:10pm 13 18 mph 1023.2mb 65f 64f
12:00pm 13 16 mph 1023.4mb 65f 65f
11:50am 13 16 mph 1023.5mb 65f 65f
11:40am 13 16 mph 1023.5mb 65f 65f
11:30am 13 16 mph 1023.5mb 65f 65f
11:20am 13 18 mph 1023.6mb 65f 65f
11:10am 13 20 mph 1023.7mb 65f 65f
11:00am 13 18 mph 1023.7mb 65f 65f
10:50am 16 18 mph 1023.7mb 65f 65f
10:40am 13 18 mph 1023.5mb 65f 65f
10:30am 13 18 mph 1023.4mb 65f 65f
10:20am 13 18 mph 1023.2mb 65f 65f
10:10am 13 16 mph 1023.2mb - 65f
10:00am 13 16 mph 1023.4mb 65f 65f
9:50am 13 16 mph 1023.4mb 65f 64f